TimeCST,TemperatureF,Dew PointF,Humidity,Sea Level PressureIn,VisibilityMPH,Wind Direction,Wind SpeedMPH,Gust SpeedMPH,PrecipitationIn,Events,Conditions,WindDirDegrees,DateUTC
12:15 AM,-16.6,-22.0,76,30.12,10.0,West,4.6,-,N/A,,Clear,260,2013-01-22 06:15:00
12:35 AM,-16.6,-23.8,70,30.11,10.0,West,3.5,-,N/A,,Clear,270,2013-01-22 06:35:00
12:55 AM,-16.6,-23.8,70,30.11,10.0,West,5.8,-,N/A,,Clear,270,2013-01-22 06:55:00
1:15 AM,-16.6,-23.8,70,30.12,10.0,West,5.8,-,N/A,,Clear,270,2013-01-22 07:15:00
1:55 AM,-16.6,-22.0,76,30.13,10.0,West,5.8,-,N/A,,Clear,270,2013-01-22 07:55:00
2:15 AM,-16.6,-23.8,70,30.14,10.0,West,8.1,-,N/A,,Clear,270,2013-01-22 08:15:00
2:35 AM,-16.6,-23.8,70,30.14,10.0,West,5.8,-,N/A,,Clear,270,2013-01-22 08:35:00
2:55 AM,-16.6,-23.8,70,30.14,10.0,West,5.8,-,N/A,,Clear,270,2013-01-22 08:55:00
3:15 AM,-16.6,-23.8,70,30.15,10.0,West,5.8,-,N/A,,Clear,270,2013-01-22 09:15:00
3:35 AM,-16.6,-23.8,70,30.15,10.0,West,6.9,-,N/A,,Clear,260,2013-01-22 09:35:00
3:55 AM,-16.6,-23.8,70,30.15,10.0,West,8.1,-,N/A,,Clear,270,2013-01-22 09:55:00
4:15 AM,-16.6,-23.8,70,30.15,10.0,West,6.9,-,N/A,,Clear,270,2013-01-22 10:15:00
4:35 AM,-16.6,-23.8,70,30.15,10.0,West,5.8,-,N/A,,Clear,270,2013-01-22 10:35:00
4:55 AM,-16.6,-23.8,70,30.15,10.0,West,4.6,-,N/A,,Clear,280,2013-01-22 10:55:00
5:15 AM,-16.6,-23.8,70,30.15,10.0,West,4.6,-,N/A,,Clear,270,2013-01-22 11:15:00
5:35 AM,-18.4,-23.8,76,30.16,10.0,West,5.8,-,N/A,,Clear,270,2013-01-22 11:35:00
5:55 AM,-18.4,-23.8,76,30.17,10.0,West,4.6,-,N/A,,Clear,270,2013-01-22 11:55:00
6:15 AM,-18.4,-25.6,70,30.17,10.0,West,4.6,-,N/A,,Clear,270,2013-01-22 12:15:00
6:55 AM,-18.4,-25.6,70,30.17,10.0,West,4.6,-,N/A,,Clear,270,2013-01-22 12:55:00
7:15 AM,-20.2,-27.4,69,30.17,10.0,West,4.6,-,N/A,,Clear,270,2013-01-22 13:15:00
7:35 AM,-20.2,-25.6,76,30.17,10.0,West,4.6,-,N/A,,Clear,260,2013-01-22 13:35:00
7:55 AM,-20.2,-25.6,76,30.18,10.0,West,3.5,-,N/A,,Clear,270,2013-01-22 13:55:00
8:15 AM,-20.2,-25.6,76,30.18,10.0,West,3.5,-,N/A,,Clear,270,2013-01-22 14:15:00
8:35 AM,-18.4,-23.8,76,30.18,10.0,West,5.8,-,N/A,,Clear,270,2013-01-22 14:35:00
8:55 AM,-16.6,-22.0,76,30.19,10.0,WNW,5.8,-,N/A,,Clear,290,2013-01-22 14:55:00
9:15 AM,-14.8,-20.2,77,30.19,10.0,WNW,6.9,-,N/A,,Clear,290,2013-01-22 15:15:00
9:35 AM,-13.0,-18.4,77,30.19,10.0,West,6.9,-,N/A,,Clear,270,2013-01-22 15:35:00
9:55 AM,-13.0,-18.4,77,30.20,10.0,WNW,9.2,-,N/A,,Clear,300,2013-01-22 15:55:00
10:15 AM,-11.2,-18.4,70,30.21,10.0,WNW,9.2,-,N/A,,Clear,290,2013-01-22 16:15:00
10:35 AM,-9.4,-18.4,65,30.22,10.0,West,8.1,-,N/A,,Clear,270,2013-01-22 16:35:00
10:55 AM,-9.4,-18.4,65,30.21,10.0,West,5.8,-,N/A,,Clear,270,2013-01-22 16:55:00
11:15 AM,-7.6,-18.4,59,30.21,10.0,West,4.6,-,N/A,,Clear,280,2013-01-22 17:15:00
11:35 AM,-7.6,-18.4,59,30.21,10.0,WSW,5.8,-,N/A,,Clear,250,2013-01-22 17:35:00
11:55 AM,-5.8,-18.4,55,30.20,10.0,West,6.9,-,N/A,,Clear,270,2013-01-22 17:55:00
12:15 PM,-5.8,-18.4,55,30.19,10.0,West,5.8,-,N/A,,Clear,260,2013-01-22 18:15:00
12:35 PM,-5.8,-18.4,55,30.19,10.0,South,3.5,-,N/A,,Clear,180,2013-01-22 18:35:00
12:55 PM,-4.0,-16.6,55,30.17,10.0,West,4.6,-,N/A,,Clear,270,2013-01-22 18:55:00
1:15 PM,-4.0,-16.6,55,30.17,10.0,West,6.9,-,N/A,,Clear,260,2013-01-22 19:15:00
1:35 PM,-4.0,-16.6,55,30.17,10.0,WSW,3.5,-,N/A,,Clear,250,2013-01-22 19:35:00
1:55 PM,-2.2,-16.6,50,30.18,10.0,WSW,3.5,-,N/A,,Clear,250,2013-01-22 19:55:00
2:15 PM,-2.2,-16.6,50,30.18,10.0,West,4.6,-,N/A,,Clear,280,2013-01-22 20:15:00
2:35 PM,-0.4,-16.6,46,30.18,10.0,West,6.9,-,N/A,,Clear,260,2013-01-22 20:35:00
2:55 PM,-0.4,-14.8,51,30.18,10.0,West,5.8,-,N/A,,Clear,280,2013-01-22 20:55:00
3:15 PM,-0.4,-14.8,51,30.18,10.0,WSW,4.6,-,N/A,,Clear,240,2013-01-22 21:15:00
3:35 PM,-0.4,-14.8,51,30.18,10.0,West,5.8,-,N/A,,Clear,260,2013-01-22 21:35:00
3:55 PM,-0.4,-14.8,51,30.17,10.0,West,8.1,-,N/A,,Clear,270,2013-01-22 21:55:00
4:15 PM,-0.4,-14.8,51,30.18,10.0,West,6.9,-,N/A,,Clear,270,2013-01-22 22:15:00
4:35 PM,-2.2,-14.8,55,30.18,10.0,Calm,Calm,-,N/A,,Clear,0,2013-01-22 22:35:00
4:55 PM,-2.2,-16.6,50,30.18,10.0,Calm,Calm,-,N/A,,Clear,0,2013-01-22 22:55:00
5:15 PM,-4.0,-16.6,55,30.18,10.0,WSW,3.5,-,N/A,,Clear,250,2013-01-22 23:15:00
5:35 PM,-4.0,-16.6,55,30.18,10.0,WSW,3.5,-,N/A,,Clear,250,2013-01-22 23:35:00
5:55 PM,-4.0,-16.6,55,30.18,10.0,Calm,Calm,-,N/A,,Clear,0,2013-01-22 23:55:00
6:15 PM,-5.8,-16.6,60,30.18,10.0,Calm,Calm,-,N/A,,Clear,0,2013-01-23 00:15:00
6:35 PM,-5.8,-16.6,60,30.19,10.0,West,5.8,-,N/A,,Clear,260,2013-01-23 00:35:00
6:55 PM,-5.8,-16.6,60,30.18,10.0,West,3.5,-,N/A,,Clear,260,2013-01-23 00:55:00
7:15 PM,-5.8,-16.6,60,30.18,10.0,WSW,3.5,-,N/A,,Clear,250,2013-01-23 01:15:00
7:35 PM,-5.8,-16.6,60,30.17,10.0,WSW,4.6,-,N/A,,Clear,250,2013-01-23 01:35:00
7:55 PM,-7.6,-16.6,65,30.17,10.0,WSW,3.5,-,N/A,,Clear,250,2013-01-23 01:55:00
8:15 PM,-7.6,-16.6,65,30.17,10.0,SW,3.5,-,N/A,,Clear,220,2013-01-23 02:15:00
8:35 PM,-7.6,-16.6,65,30.17,10.0,Calm,Calm,-,N/A,,Clear,0,2013-01-23 02:35:00
8:55 PM,-7.6,-16.6,65,30.16,10.0,Calm,Calm,-,N/A,,Clear,0,2013-01-23 02:55:00
9:15 PM,-9.4,-16.6,71,30.16,10.0,Calm,Calm,-,N/A,,Scattered Clouds,0,2013-01-23 03:15:00
9:35 PM,-9.4,-16.6,71,30.16,10.0,Calm,Calm,-,N/A,,Clear,0,2013-01-23 03:35:00
9:55 PM,-11.2,-18.4,70,30.16,10.0,Calm,Calm,-,N/A,,Clear,0,2013-01-23 03:55:00
10:15 PM,-13.0,-20.2,70,30.16,10.0,Calm,Calm,-,N/A,,Clear,0,2013-01-23 04:15:00
10:35 PM,-14.8,-20.2,77,30.16,10.0,Calm,Calm,-,N/A,,Clear,0,2013-01-23 04:35:00
10:55 PM,-14.8,-18.4,84,30.16,10.0,Calm,Calm,-,N/A,,Scattered Clouds,0,2013-01-23 04:55:00
11:15 PM,-14.8,-22.0,70,30.16,10.0,Calm,Calm,-,N/A,,Scattered Clouds,0,2013-01-23 05:15:00
11:35 PM,-14.8,-22.0,70,30.16,10.0,Calm,Calm,-,N/A,,Clear,0,2013-01-23 05:35:00
11:55 PM,-14.8,-18.4,84,30.15,10.0,Calm,Calm,-,N/A,,Clear,0,2013-01-23 05:55:00